Regional Weather Roundup
Issued by NWS Northern Indiana

Home | Current Version | Previous Version | Text Only | Print | Product List | Glossary Off
Versions: 1 2 3 4 5 6 7 8 9 10 11 12 13 14 15 16 17 18 19 20 21 22 23 24 25 26 27 28 29 30 31 32 33 34 35 36 37 38 39 40 41 42 43 44 45 46 47 48 49 50

000
ASUS43 KIWX 020500
RWRIWX

KIWX WEATHER ROUNDUP
NATIONAL WEATHER SERVICE NORTHERN INDIANA
1200 AM EST MON MAR 02 2015

NOTE: "FAIR" INDICATES FEW OR NO CLOUDS BELOW 12,000 FEET WITH NO
SIGNIFICANT WEATHER AND/OR OBSTRUCTIONS TO VISIBILITY.

* THESE STATIONS ARE NOT UNDER NWS QUALITY CONTROL. THEY ALSO MAY NOT
  REPORT WEATHER SUCH AS PRECIPITATION OR FOG.

INZ001>027-020600-
NORTHERN INDIANA

CITY           SKY/WX    TMP DP  RH WIND       PRES   REMARKS
SOUTH BEND     PTCLDY    17  11  77 W10       30.31S WCI   5
GOSHEN         PTCLDY    17  12  80 W14       30.31R WCI   3
MONTICELLO*    FAIR      15  13  90 W8        30.37S WCI   4
ANGOLA*        CLOUDY    21  10  63 W12       30.26R WCI   9
FORT WAYNE     MOCLDY    19  15  84 W14       30.32R WCI   6
PERU/GRISSOM   PTCLDY    12   9  89 SW9       30.35S WCI  -1

$$
INZ028>050-020600-
CENTRAL INDIANA

CITY           SKY/WX    TMP DP  RH WIND       PRES   REMARKS
LAFAYETTE      PTCLDY    16  14  92 W6        30.40R WCI   7
KOKOMO*        PTCLDY    16  10  79 W10       30.37R WCI   3
MUNCIE*        MOCLDY    21  17  84 W12       30.35R WCI   9
INDIANAPOLIS   PTCLDY    23  18  81 W12       30.38R WCI  12

$$
MIZ043>046-050>051-056>058-064>065-071>073-077>080-020600-
SOUTHWEST LOWER MICHIGAN

CITY           SKY/WX    TMP DP  RH WIND       PRES   REMARKS
BATTLE CREEK   CLOUDY    24  17  74 W13       30.24S WCI  12
BENTON HARBOR  CLOUDY    23  19  85 W18       30.30S WCI   9
COLDWATER*     CLOUDY    23  17  80 W15G21    30.26R WCI  10
HILLSDALE*     CLOUDY    23  18  80 W12G17    30.22S WCI  12
HOLLAND        FLURRIES  27  19  72 W16G24    30.26S WCI  15
GRAND RAPIDS   LGT SNOW  24  18  77 W17       30.22S WCI  11
KALAMAZOO      CLOUDY    23  17  78 W12       30.26S WCI  12
STURGIS*       CLOUDY    21  18  86 W9G16     30.27S WCI  11
THREE RIVERS*  CLOUDY    22  16  77 W9        30.28S WCI  12

$$
OHZ001>008-015>018-024>025-020600-
NORTHWEST OHIO

CITY           SKY/WX    TMP DP  RH WIND       PRES   REMARKS
DEFIANCE       CLOUDY    24  17  74 W10G16    30.30R WCI  14
FINDLAY        CLOUDY    22  18  85 W12       30.28R FOG     WCI  10
TOLEDO EXPRESS CLOUDY    21  17  84 W10       30.27S WCI  10
TOLEDO METCALF CLOUDY    21  17  84 W10       30.28S WCI  10
LIMA             N/A     25  20  81 W18       30.29R WCI  11

$$
AND FOR LAKE MICHIGAN COASTAL AND OPEN LAKE BUOY OBSERVATIONS

STATION/POSITION TEMP    WIND        PRES    VSBY  WAVE
                 AIR SEA DIR/SP/G                  HT/PER
                 (F)     (DEG/KT/KT) (MB)    (MI)  (FT/S)
CALUMET HARBOR    21     240/  6/ 10 1026.1R
MICHIGAN CITY     19     210/ 14/ 15   N/A
SAINT JOSEPH      22     210/ 11/ 15 1026.8S

$$
&&


USA.gov is the U.S. government's official web portal to all federal, state and local government web resources and services.